SCP
0 0 0 0 0 0 0 0 0 0 0 0 0 0 1 2 2 4 4 4 4 4 4 4 4 4 4 3 3 3 3 3 4 4 4 4 4 3 2 2 2 2 1 1
0 0 0 0 0 0 0 0 0 0 0 0 0 0 1 2 2 3 4 4 4 4 4 4 4 4 4 4 3 3 3 3 4 4 4 4 3 3 2 2 2 2 1 1
0 0 0 0 0 0 0 0 0 0 0 0 0 0 0 1 2 2 3 3 3 3 4 5 5 4 4 4 4 4 3 3 4 4 4 4 4 3 3 2 2 2 2 1
0 0 0 0 0 0 0 0 0 0 0 0 0 0 0 1 1 2 2 2 2 2 3 4 4 4 4 3 3 3 3 3 3 4 5 5 4 3 3 2 2 2 2 2
0 0 0 0 0 0 0 0 0 0 0 0 0 0 0 1 1 1 1 1 1 2 2 3 3 3 3 3 3 3 3 3 3 4 5 5 4 3 2 2 1 1 1 1
0 0 0 0 0 0 0 0 0 0 0 0 0 0 0 1 1 1 1 1 1 1 1 2 2 3 3 3 3 4 4 4 4 4 5 5 4 3 2 2 1 1 1 1
0 0 0 0 0 0 0 0 0 0 0 0 0 0 0 1 1 1 1 1 0 1 1 1 1 2 2 3 3 4 4 4 3 3 4 4 3 2 2 2 1 1 1 1
0 0 0 0 0 0 0 0 0 0 0 0 0 0 0 0 0 0 0 0 0 0 1 1 1 1 1 2 3 3 3 3 3 2 2 2 2 1 1 1 1 1 1 0
0 0 0 0 0 0 0 0 0 0 0 0 0 0 0 0 0 0 0 0 0 0 0 0 1 1 1 1 2 3 3 3 2 1 1 1 1 1 1 1 1 0 0 0
0 0 0 0 0 0 0 0 0 0 0 0 0 0 0 0 0 0 0 0 0 0 0 0 0 0 0 1 2 3 3 3 2 1 1 1 1 1 1 0 0 0 0 0
0 0 0 0 0 0 0 0 0 0 0 0 0 0 0 0 0 0 0 0 0 0 0 0 0 0 0 1 1 2 2 2 1 1 1 0 1 0 0 0 0 0 0 0
0 0 0 0 0 0 0 0 0 0 0 0 0 0 0 0 0 0 0 0 0 0 0 0 0 0 0 0 0 1 1 1 0 0 0 0 0 0 0 0 0 0 0 0
0 0 0 0 0 0 0 0 0 0 0 0 0 0 0 0 0 0 0 0 0 0 0 0 0 0 0 0 0 0 0 0 0 0 0 0 0 0 0 0 0 0 0 0
0 0 0 0 0 0 0 0 0 0 0 0 0 0 0 0 0 0 0 0 0 0 0 0 0 0 0 0 0 0 0 0 0 0 0 0 0 0 0 0 0 0 0 0
0 0 0 0 0 0 0 0 0 0 0 0 0 0 0 0 0 0 0 0 0 0 0 0 0 0 0 0 0 0 0 0 0 0 0 0 0 0 0 0 0 0 0 0
0 0 0 0 0 0 0 0 0 0 0 0 0 0 0 0 0 0 0 0 0 0 0 0 0 0 0 0 0 0 0 0 0 0 0 0 0 0 0 0 0 0 0 0
0 0 0 0 0 0 0 0 0 0 0 0 0 0 0 0 0 0 0 0 0 0 0 0 0 0 0 0 0 0 0 0 0 0 0 0 0 0 0 0 0 0 0 0
0 0 0 0 0 0 0 0 0 0 0 0 0 0 0 0 0 0 0 0 0 0 0 0 0 0 0 0 0 0 0 0 0 0 0 0 0 0 0 0 0 0 0 0
0 0 0 0 0 0 0 0 0 0 0 0 0 0 0 0 0 0 0 0 0 0 0 0 0 0 0 0 0 0 0 0 0 0 0 0 0 0 0 0 0 0 0 0
0 0 0 0 0 0 0 0 0 0 0 0 0 0 0 0 0 0 0 0 0 0 0 0 0 0 0 0 0 0 0 0 0 0 0 0 0 0 0 0 0 0 0 0
0 0 0 0 0 0 0 0 0 0 0 0 0 0 0 0 0 0 0 0 0 0 0 0 0 0 0 0 0 0 0 0 0 0 0 0 0 0 0 0 0 0 0 0
0 0 0 0 0 0 0 0 0 0 0 0 0 0 0 0 0 0 0 0 0 0 0 0 0 0 0 0 0 0 0 0 0 0 0 0 0 0 0 0 0 0 0 0
0 0 0 0 0 0 0 0 0 0 0 0 0 0 0 0 0 0 0 0 0 0 0 0 0 0 0 0 0 0 0 0 0 0 0 0 0 0 0 0 0 0 0 0
0 0 0 0 0 0 0 0 0 0 0 0 0 0 0 0 0 0 0 0 0 0 0 0 0 0 0 0 0 0 0 0 0 0 0 0 0 0 0 0 0 0 0 0
0 0 0 0 0 0 0 0 0 0 0 0 0 0 0 0 0 0 0 0 0 0 0 0 0 0 0 0 0 0 0 0 0 0 0 0 0 0 0 0 0 0 0 0
0 0 0 0 0 0 0 0 0 0 0 0 0 0 0 0 0 0 0 0 0 0 0 0 0 0 0 0 0 0 0 0 0 0 0 0 0 0 0 0 0 0 0 0
Wind_Speed
3 4 2 5 6 4 1 2 5 6 5 3 4 6 8 9 5 3 2 4 6 6 2 2 3 5 6 7 8 9 9 7 5 4 4 4 5 4 4 5 6 6 6 6
5 3 7 4 3 3 2 2 4 6 5 3 4 5 5 9 9 6 3 2 1 2 2 1 1 1 3 4 5 5 5 5 6 5 4 3 3 3 3 3 4 4 4 4
2 5 4 1 1 2 1 3 3 4 5 5 5 7 5 6 8 11 11 7 6 4 2 2 2 2 2 1 2 3 4 4 4 4 2 1 0 0 1 2 2 2 3 3
3 4 3 2 0 3 2 3 3 1 2 4 3 4 5 5 7 10 10 9 8 7 5 3 3 2 2 2 2 3 4 4 4 4 3 4 4 4 4 3 1 1 1 2
3 3 3 2 2 1 2 2 2 2 1 2 3 1 6 5 6 6 6 6 5 5 5 4 3 3 2 2 2 3 4 4 4 4 6 6 5 4 2 1 2 1 1 1
3 2 1 2 1 2 2 5 5 5 5 1 2 1 6 2 3 4 4 4 4 4 4 4 4 3 3 2 2 2 2 3 3 4 4 6 6 5 4 3 3 1 1 1
5 5 4 1 3 5 6 6 6 7 5 5 4 2 8 3 2 3 3 4 4 4 5 5 5 5 4 4 4 3 2 2 1 2 3 4 5 5 5 4 3 3 1 1
1 5 4 2 2 1 2 6 5 3 4 6 5 5 6 3 3 4 4 4 4 5 5 5 6 6 5 5 4 3 3 1 1 2 3 4 5 4 3 4 3 3 2 1
5 5 3 2 2 4 4 2 4 6 1 3 6 7 7 3 5 6 6 6 7 6 5 5 5 5 5 5 4 3 2 0 1 3 4 5 5 6 5 4 4 3 2 2
8 4 3 1 3 6 3 7 5 4 2 4 6 5 6 5 7 7 7 8 8 6 6 5 4 4 4 4 3 3 1 0 2 2 3 4 5 6 6 5 5 4 3 3
5 5 3 3 0 1 3 4 5 4 4 4 5 9 8 7 7 7 9 8 8 7 6 5 4 3 3 3 2 2 2 2 2 3 3 4 5 5 6 5 4 4 3 3
3 6 2 4 3 1 3 6 7 5 4 5 3 11 7 7 7 7 9 8 7 6 5 4 3 2 2 2 2 2 2 1 1 2 3 4 5 5 5 5 4 4 4 4
6 6 2 7 7 2 1 3 4 5 4 5 5 11 5 3 6 7 8 8 7 5 5 3 2 2 2 1 1 1 1 1 1 2 3 4 4 5 4 4 4 4 5 5
7 6 7 8 8 6 4 4 5 6 4 6 10 12 12 10 9 8 7 7 6 5 3 3 2 1 1 1 1 1 0 1 2 3 4 4 4 4 4 4 4 5 5 5
5 5 6 7 6 4 6 8 7 9 10 10 11 11 15 10 8 7 6 5 5 5 4 4 3 2 1 1 1 1 1 1 2 4 4 4 3 4 4 4 4 5 5 6
3 4 3 4 5 6 7 10 10 10 8 9 9 12 12 7 4 5 6 6 6 6 5 5 4 4 3 3 2 2 1 1 2 4 4 4 4 4 4 4 4 5 5 5
3 5 4 5 3 2 8 11 10 8 8 9 11 13 6 5 7 8 7 7 8 7 6 6 5 5 5 4 4 3 2 2 3 3 4 5 5 5 4 4 4 5 4 4
6 5 3 2 1 7 12 5 6 7 9 9 8 7 7 9 6 5 6 7 8 7 7 6 5 5 4 3 3 3 3 3 4 4 4 5 5 5 5 5 4 4 3 4
6 8 4 3 4 9 10 6 6 6 9 7 9 9 5 2 1 5 8 9 9 8 7 6 6 5 4 4 4 3 3 3 4 4 5 5 5 5 5 5 4 3 4 4
4 4 5 4 4 8 11 6 2 4 6 7 7 9 5 6 1 8 6 8 8 7 6 6 5 4 4 4 4 4 4 4 5 5 5 5 5 6 5 5 4 3 4 5
2 1 3 5 6 10 10 5 4 4 9 5 6 8 8 10 11 7 3 5 7 7 7 6 6 5 5 4 5 5 5 5 5 5 5 5 5 5 5 4 3 4 5 6
4 4 5 4 5 11 6 4 7 11 6 4 6 8 9 12 10 6 5 6 7 7 7 7 6 6 5 5 6 5 6 5 5 6 6 6 5 4 5 5 4 5 6 6
7 9 7 10 11 9 5 9 9 5 6 7 7 9 10 10 10 9 8 8 8 8 8 7 7 6 5 5 6 7 5 5 7 7 6 6 5 4 5 5 5 5 5 5
6 4 4 7 10 10 10 9 8 8 10 10 9 9 8 11 11 9 8 8 8 8 8 7 7 6 6 6 7 7 6 7 8 7 6 6 5 5 4 4 4 5 5 5
8 4 5 9 10 9 9 10 11 10 9 9 9 8 9 11 11 10 9 10 10 9 7 7 8 8 8 7 7 7 7 9 8 8 7 6 5 5 4 3 3 4 4 5
6 7 7 11 12 9 10 9 8 8 9 10 9 9 8 11 13 11 11 10 10 10 8 8 9 9 8 7 8 7 8 10 9 7 7 5 5 4 4 4 3 2 2 5
Wind_Direction
37 50 285 244 205 201 223 296 298 283 296 327 313 315 335 355 359 322 231 202 207 220 215 142 174 186 190 197 200 205 206 211 196 186 194 196 208 212 214 216 214 212 211 207
28 307 255 237 196 196 229 293 300 302 328 358 324 328 358 25 20 15 35 67 48 30 41 33 49 213 199 206 209 212 215 218 207 204 200 196 198 205 208 209 206 207 207 205
218 259 296 312 154 161 234 212 255 284 330 10 8 345 359 14 26 34 34 35 36 40 35 29 26 358 336 260 228 219 213 213 218 218 199 172 172 219 227 236 221 213 207 209
254 273 326 8 71 148 265 244 228 262 24 326 17 312 315 357 17 31 28 24 18 14 18 25 24 343 322 292 264 215 194 203 212 205 203 210 219 235 228 222 218 227 198 200
291 302 341 339 296 198 224 38 53 30 130 342 355 262 290 1 9 6 11 15 8 4 2 356 346 314 296 281 258 218 195 198 200 198 201 207 220 231 222 190 149 152 95 93
263 291 269 259 5 35 91 64 51 44 62 330 289 283 280 313 313 313 328 341 340 340 341 334 326 317 305 297 287 267 225 219 204 193 193 199 197 188 178 171 157 151 99 60
330 334 337 350 48 21 61 67 17 355 4 264 284 259 248 226 236 267 274 282 297 313 320 319 320 320 318 317 308 298 269 242 208 164 156 170 167 161 163 160 151 141 118 76
264 300 306 349 145 154 98 130 155 229 240 279 310 254 253 217 223 246 254 262 277 288 298 304 307 312 312 312 309 302 290 274 116 117 106 108 115 116 115 118 121 115 103 87
194 248 290 9 31 127 132 138 159 144 207 270 278 292 299 224 247 251 257 259 259 262 271 279 294 307 312 317 320 309 295 286 108 111 113 106 106 108 107 101 96 94 85 70
169 217 275 303 63 35 92 139 99 122 200 269 288 281 256 249 253 257 256 256 256 254 260 268 282 298 311 319 330 342 3 140 102 97 112 113 107 105 106 103 97 93 80 66
148 170 281 4 123 228 104 98 108 120 159 177 269 270 234 230 241 252 261 261 261 255 253 258 266 285 303 318 344 2 16 40 79 93 99 102 96 97 97 93 86 85 78 73
129 127 229 280 288 274 196 174 149 159 224 192 212 268 259 240 254 256 267 275 274 263 256 253 260 274 302 314 334 15 24 37 71 107 116 111 103 97 94 94 90 87 83 74
137 117 53 337 338 333 131 154 153 132 134 172 194 263 282 272 279 265 262 274 279 272 266 256 260 267 292 316 323 342 72 97 112 129 125 118 114 109 107 105 97 93 92 81
117 134 170 207 224 211 220 196 163 146 176 217 224 252 281 281 276 277 269 267 274 270 262 245 235 247 293 340 322 310 88 142 148 142 135 131 130 124 118 108 101 98 100 90
123 181 215 230 233 205 225 233 199 196 205 214 239 242 259 260 253 257 263 266 269 266 247 236 220 218 215 207 256 249 193 138 140 142 142 141 133 124 114 104 99 97 96 93
128 189 198 260 253 234 254 253 239 226 221 226 247 260 253 250 239 251 255 253 254 248 235 228 215 203 198 197 193 196 178 139 137 140 140 134 128 123 111 105 102 97 94 90
167 154 158 255 283 333 269 243 231 223 216 199 223 243 253 230 231 235 238 237 241 240 230 218 207 199 198 196 190 188 181 148 138 139 135 130 126 120 112 108 104 102 103 101
155 141 158 216 136 232 243 240 207 221 246 220 228 244 227 222 233 237 223 221 235 232 223 215 206 200 199 199 194 179 165 155 147 142 138 136 133 127 119 112 110 104 107 110
153 142 143 157 219 266 287 267 203 205 262 233 222 243 242 195 16 285 233 213 222 221 213 209 201 195 195 198 190 169 167 162 157 156 153 153 146 139 133 128 122 110 113 110
81 111 136 160 205 248 249 260 188 142 270 255 212 232 205 134 213 264 244 208 218 215 207 201 190 181 195 205 181 172 178 176 179 172 161 154 150 146 145 142 128 117 120 118
42 87 185 205 227 259 254 262 133 187 243 258 213 218 185 190 216 232 214 203 205 201 200 191 181 189 204 191 170 184 190 198 192 166 151 147 144 144 141 132 122 127 125 117
209 214 220 192 213 256 250 165 191 221 235 246 229 220 207 221 239 239 227 220 205 198 195 186 186 204 207 184 176 192 206 202 170 155 151 147 144 143 136 130 126 131 132 126
212 202 202 199 220 238 230 216 234 226 231 241 233 232 218 227 239 235 228 220 208 200 195 187 190 203 207 193 185 197 206 174 159 155 155 150 142 135 141 144 142 138 141 140
269 221 218 255 262 258 256 255 257 241 236 246 239 234 217 222 234 230 221 213 205 201 196 188 184 198 210 204 199 202 182 166 160 161 159 153 147 142 142 146 153 154 158 154
240 242 243 258 269 282 276 258 251 253 251 255 255 237 223 223 231 223 215 210 205 201 193 183 189 200 209 201 201 195 174 164 164 164 163 160 158 154 149 143 157 169 175 172
225 216 230 257 256 245 255 258 262 262 261 255 253 255 239 220 229 220 215 211 203 199 189 189 198 204 207 196 199 191 177 171 166 167 169 168 163 160 154 143 112 75 145 173